This is the latest recevied weather packets stored in our database for station/object K0SDS. If no packets are shown the sender has not sent any weather packets the latest 10 day(s).
| Time | Temp. | Humidity | Pressure | Rain* | Wind** | Luminosity | Snow |
|---|---|---|---|---|---|---|---|
| 1778168396 | 16.11° C | 58% | 1015.3 hPa | 0 mm | - | 164 W/m² | - |
| 1778168093 | 16.11° C | 57% | 1015.5 hPa | 0 mm | - | 749 W/m² | - |
| 1778167790 | 15.56° C | 60% | 1015.4 hPa | 0 mm | - | 741 W/m² | - |
| 1778167486 | 15.56° C | 61% | 1015.5 hPa | 0 mm | - | 701 W/m² | - |
| 1778167182 | 15.56° C | 61% | 1015.7 hPa | 0 mm | - | 683 W/m² | - |
| 1778166878 | 15° C | 64% | 1015.5 hPa | 0 mm | - | 632 W/m² | - |
| 1778166575 | 15° C | 63% | 1015.6 hPa | 0 mm | - | 605 W/m² | - |
| 1778166272 | 15° C | 63% | 1015.9 hPa | 0 mm | - | 586 W/m² | - |
| 1778165969 | 15° C | 63% | 1015.7 hPa | 0 mm | - | 548 W/m² | - |
| 1778165664 | 15° C | 64% | 1015.9 hPa | 0 mm | - | 505 W/m² | - |
| 1778165362 | 14.44° C | 65% | 1016 hPa | 0 mm | - | 514 W/m² | - |
| 1778165058 | 14.44° C | 65% | 1016.2 hPa | 0 mm | - | 475 W/m² | - |
| 1778164756 | 14.44° C | 65% | 1016.1 hPa | 0 mm | - | 414 W/m² | - |
| 1778164453 | 13.89° C | 66% | 1016.3 hPa | 0 mm | - | 407 W/m² | - |
| 1778164149 | 13.33° C | 68% | 1015.9 hPa | 0 mm | - | 386 W/m² | - |
| 1778163845 | 13.33° C | 68% | 1016.1 hPa | 0 mm | - | 355 W/m² | - |
| 1778163543 | 12.78° C | 67% | 1016 hPa | 0 mm | - | 314 W/m² | - |
| 1778163238 | 12.78° C | 68% | 1016 hPa | 0 mm | - | 302 W/m² | - |
| 1778162935 | 12.78° C | 69% | 1016.2 hPa | 0 mm | - | 306 W/m² | - |
| 1778162632 | 12.78° C | 70% | 1016.2 hPa | 0 mm | - | 269 W/m² | - |
| 1778162330 | 12.22° C | 72% | 1016.2 hPa | 0 mm | - | 255 W/m² | - |
| 1778162026 | 11.67° C | 73% | 1016 hPa | 0 mm | - | 251 W/m² | - |
| 1778161724 | 11.67° C | 73% | 1016.4 hPa | 0 mm | - | 243 W/m² | - |
| 1778161420 | 11.67° C | 75% | 1016.2 hPa | 0 mm | - | 240 W/m² | - |
| 1778161116 | 11.11° C | 75% | 1016.2 hPa | 0 mm | - | 218 W/m² | - |
* Rain latest hour (hover to see other rain measurements)
** Current wind speed in m/s (hover to see current wind gust speed)